Location: Devargunta
(16.7631°N, 80.9077°E)
Time: 16:59:03
(UTC+00:00)

NOSS 2-1 (C) - Pass Details

Date: 19 January 2021
Orbit: 432 x 1770 km, 63.3° (Epoch: 24 February)

Event Time Altitude Azimuth Distance (km) Brightness Sun altitude
Rises 13:11:55 0° 214° (SW) 3,010 8.0 -11.3°
Reaches altitude 10° 13:14:33 10° 220° (SW) 1,921 7.0 -11.9°
Maximum altitude 13:18:32 46° 294° (WNW) 675 4.1 -12.8°
Drops below altitude 10° 13:21:50 10° 10° (N) 1,579 5.4 -13.6°
Enters shadow 13:22:24 - 12° (NNE) 1,814 5.7 -13.7°
